Location: Asheville, NC
(35.6000°N, 82.5500°W)
Time: 20:04:06
(UTC-04:00)

STRAND 1 - Pass Details

Date: 10 March 2018
Orbit: 769 x 780 km, 98.5° (Epoch: 24 June)

Event Time Altitude Azimuth Distance (km) Brightness Sun altitude
Rises 19:42:02 0° 18° (NNE) 3,261 ? -14.7°
Reaches altitude 10° 19:44:24 10° 23° (NNE) 2,328 ? -15.2°
Maximum altitude 19:49:26 54° 100° (E) 931 ? -16.2°
Drops below altitude 10° 19:54:24 10° 178° (S) 2,306 ? -17.2°
Sets 19:56:45 0° 183° (S) 3,227 ? -17.7°
